Flag Weather past 2 weeks in Helsinki, Finland

Now
30 °F

Partly sunny.


Feels Like: 23 °F
Forecast: 30 / 36 °F
Wind: 7 mph from Northeast

Location: Helsinki Malmi Airport

Current Time: Nov 21, 2014 at 2:22:24 PM

Latest Report: Nov 21, 2014 at 1:50 PM


Visibility: N/A

Pressure: 30.36 "Hg

Humidity: 86%

Dew point: 27 °F

Location of HelsinkiLocation

Historic Weather in Helsinki — Graph

°F

Helsinki temperature yesterday

Maximum temperature yesterday: 32 °F (at 2:50 PM)
Minimum temperature yesterday: 28 °F (at 1:20 AM)
Average temperature yesterday: 30 °F

Past Weeks' High & Low Weather Summary

 TemperatureHumidityPressure
High50 °F (Nov 11, 2:50 PM)100% (Nov 6, 8:20 PM)30.60 "Hg (Nov 6, 8:20 PM)
Low28 °F (Nov 20, 1:20 AM)70% (Nov 19, 1:50 PM)29.74 "Hg (Nov 7, 5:20 AM)
Average37 °F90%30.25 "Hg
* Reported Nov 6 12:20 PM — Nov 21 12:50 PM, Helsinki, Weather by CustomWeather, © 2014

Note: Actual official high and low records may vary slightly from our data, if they occured in-between our weather recording intervals... More about our weather records

Advertising

Helsinki weather history for previous 24 hours

 ConditionsComfort  
Time TempWeatherWind HumidityBarometerVisibility
12:50 PM
Nov 21
30 °FPartly sunny.6 mph86%30.36 "HgN/A
12:20 PM30 °FPartly sunny.5 mph86%30.39 "HgN/A
11:50 AM30 °FPartly sunny.5 mph86%30.39 "HgN/A
11:20 AM30 °FPartly sunny.6 mph86%30.39 "HgN/A
10:50 AM30 °FPartly sunny.6 mph80%30.39 "HgN/A
10:20 AM30 °FPartly sunny.5 mph80%30.39 "HgN/A
9:50 AM30 °FPartly sunny.5 mph80%30.39 "HgN/A
9:20 AM30 °FPartly sunny.6 mph80%30.42 "HgN/A
8:50 AM30 °FPartly sunny.6 mph86%30.42 "HgN/A
8:20 AM30 °FPassing clouds.5 mph86%30.39 "HgN/A
7:50 AM30 °FLow clouds.6 mph86%30.39 "HgN/A
7:20 AM30 °FLow clouds.5 mph86%30.42 "HgN/A
6:50 AM30 °FLow clouds.5 mph86%30.42 "HgN/A
6:20 AM30 °FLow clouds.3 mph93%30.42 "HgN/A
5:20 AM30 °FLow clouds.5 mph93%30.45 "HgN/A
4:50 AM30 °FPassing clouds.5 mph93%30.45 "Hg6 mi
4:20 AM30 °FPassing clouds.2 mph93%30.45 "Hg6 mi
3:50 AM30 °FPassing clouds.3 mph93%30.45 "Hg6 mi
3:20 AM30 °FPassing clouds.3 mph93%30.45 "HgN/A
2:50 AM30 °FOvercast.5 mph93%30.48 "HgN/A
2:20 AM30 °FOvercast.5 mph93%30.48 "HgN/A
1:50 AM30 °FLow clouds.3 mph93%30.48 "HgN/A
1:20 AM30 °FOvercast.3 mph93%30.48 "HgN/A
12:50 AM30 °FOvercast.2 mph93%30.51 "HgN/A
12:20 AM30 °FLow clouds.3 mph86%30.51 "HgN/A
11:50 PM
Nov 20
30 °FLow clouds.5 mph93%30.51 "HgN/A
11:20 PM30 °FOvercast.5 mph86%30.51 "HgN/A
10:50 PM30 °FOvercast.6 mph93%30.51 "HgN/A
10:20 PM30 °FLow clouds.5 mph86%30.51 "HgN/A
9:20 PM30 °FOvercast.2 mph86%30.54 "HgN/A
8:50 PM30 °FPassing clouds.3 mph86%30.54 "HgN/A
8:20 PM30 °FPassing clouds.3 mph86%30.54 "HgN/A
7:50 PM30 °FPassing clouds.2 mph86%30.54 "HgN/A
7:20 PM30 °FPassing clouds.3 mph86%30.54 "HgN/A
6:50 PM30 °FPassing clouds.2 mph86%30.54 "HgN/A
6:20 PM30 °FPassing clouds.5 mph86%30.54 "HgN/A
5:50 PM32 °FPassing clouds.5 mph87%30.54 "HgN/A
5:20 PM32 °FPassing clouds.5 mph80%30.54 "HgN/A
4:50 PM32 °FPassing clouds.6 mph87%30.54 "HgN/A
4:20 PM32 °FPassing clouds.3 mph87%30.57 "HgN/A
3:50 PM32 °FPassing clouds.2 mph80%30.57 "HgN/A
3:20 PM32 °FPartly sunny.3 mph80%30.57 "HgN/A
2:50 PM32 °FPartly sunny.1 mph80%30.57 "HgN/A
2:20 PM30 °FPartly sunny.2 mph86%30.57 "HgN/A
Weather by CustomWeather, © 2014

See weather overviewHow to use our weather pages